COSMOS 2361 1 25590U 98076A 23341.09236175 .00000092 00000-0 83162-4 0 9992 2 25590 82.9332 168.7339 0032038 151.9294 330.0404 13.73087842250312 COSMOS 2378 1 26818U 01023A 23341.13800222 .00000060 00000-0 46880-4 0 9998 2 26818 82.9272 185.7366 0034231 97.6612 23.0081 13.74024001128149 COSMOS 2389 1 27436U 02026A 23340.92015238 .00000075 00000-0 62343-4 0 9998 2 27436 82.9490 132.3034 0045402 317.2003 208.9521 13.75035256 80229 COSMOS 2398 1 27818U 03023A 23340.61592593 .00000068 00000-0 58225-4 0 9996 2 27818 82.9482 95.8593 0031262 2.6574 186.8289 13.72269225 27064 COSMOS 2407 1 28380U 04028A 23341.19307295 .00000070 00000-0 55970-4 0 9991 2 28380 82.9623 38.3106 0038166 315.1635 98.7350 13.76181550973112 COSMOS 2414 1 28521U 05002A 23340.49072665 .00000099 00000-0 69362-4 0 9994 2 28521 82.9511 22.2009 0041642 83.5374 277.0529 13.87738836955722 COSMOS 2429 1 32052U 07038A 23341.06241620 .00000084 00000-0 72116-4 0 9997 2 32052 82.9795 166.2023 0037299 294.1451 65.5806 13.75024501814876 COSMOS 2454 1 35635U 09039A 23340.58083615 .00000085 00000-0 56579-4 0 9990 2 35635 82.9570 7.4814 0019780 25.9422 142.4878 13.89766774729109 COSMOS 2463 1 36519U 10017A 23341.18922625 .00000068 00000-0 57833-4 0 9995 2 36519 82.9614 207.8156 0036349 169.1772 310.8862 13.71532681681496